Find KUIPER-00476

NORAD ID: 68874 Int'l Des: 2026-095L Owner: kuiper Country: USA Constellation: kuiper operational
LEOCIRCULAR

Live-Position

3D-Globus wird geladen...

Über KUIPER-00476

Beschreibung wird geladen...

Nächste Überflüge

Passes for default location (London). Set your location on the main map for personalized predictions.

Höhenverlauf

Loading altitude history...

Zweizeiliger Elementsatz

1 68874U 26095L 26120.66670139 -.00014882 00000-0 -40449-3 0 9993
2 68874 51.8727 112.1853 0009965 123.4294 43.2971 15.36209121 1603
Epoch: 30. Apr. 2026 • Age: 32 hours

Aktueller Status

Höhe 480.6 km
Geschwindigkeit 7.62 km/s
Subsatellitenpunkt -52.01°S, 158.77°E
Typ internet

Most Searched